FW0954 Weather Reports


Display with metric or nautical units.
time (UTC)temp
F
wind
direction
speed
MPH
gust
MPH
rain 1hr
in
rain 24hr
in
rain mn
in
humidity
%
barometer
mb
20260508013001 65 0 0.0 0.0 0.00 0.00 0.00 75 1014.9
20260508012502 65 0 0.0 0.0 0.00 0.00 0.00 74 1015.1
20260508012001 65 0 0.0 0.0 0.00 0.00 0.00 74 1015.0
20260508011502 66 0 0.0 0.0 0.00 0.00 0.00 74 1014.9
20260508010502 66 0 0.0 0.0 0.00 0.00 0.00 73 1015.0
20260508010002 66 0 0.0 0.0 0.00 0.00 0.00 74 1014.9
20260508005502 66 0 0.0 0.0 0.00 0.00 0.00 74 1014.9
20260508005001 67 171 0.0 1.0 0.00 0.00 0.00 73 1014.8
20260508004502 67 172 0.0 1.0 0.00 0.00 0.00 73 1014.9
20260508004001 67 168 0.0 1.0 0.00 0.00 0.00 73 1015.0
20260508003002 68 163 0.0 1.0 0.00 0.00 0.00 72 1015.0
20260508002502 68 155 0.0 1.0 0.00 0.00 0.00 72 1015.1
20260508002001 68 155 0.0 1.0 0.00 0.00 0.00 71 1015.1
20260508001502 68 155 0.0 1.0 0.00 0.00 0.00 71 1015.0
20260508001001 69 176 0.0 3.0 0.00 0.00 0.00 70 1015.0
20260508000502 69 189 1.0 4.0 0.00 0.00 0.00 69 1015.1
20260508000002 69 189 1.0 4.0 0.00 0.00 0.00 69 1015.1
20260507235501 69 181 0.0 4.0 0.00 0.00 0.00 68 1015.0
20260507235001 69 183 1.0 5.0 0.00 0.00 0.00 69 1015.0
20260507234502 69 187 2.0 5.0 0.00 0.00 0.00 68 1015.0
20260507234001 69 184 2.0 5.0 0.00 0.00 0.00 67 1015.0
20260507233502 69 174 1.0 5.0 0.00 0.00 0.00 68 1015.1
20260507232002 69 171 2.0 5.0 0.00 0.00 0.00 67 1015.2
20260507231502 70 182 2.0 5.0 0.00 0.00 0.00 66 1015.3
20260507231002 70 190 1.0 5.0 0.00 0.00 0.00 66 1015.2
20260507230502 70 188 1.0 5.0 0.00 0.00 0.00 66 1015.3
20260507230002 70 169 1.0 6.0 0.00 0.00 0.00 67 1015.2
20260507225502 70 164 1.0 6.0 0.00 0.00 0.00 66 1015.3
20260507225002 70 187 1.0 6.0 0.00 0.00 0.00 66 1015.3
20260507224002 70 171 2.0 5.0 0.00 0.00 0.00 66 1015.3
20260507223502 71 161 1.0 5.0 0.00 0.00 0.00 65 1015.4
20260507223001 71 174 2.0 6.0 0.00 0.00 0.00 65 1015.3
20260507222502 71 181 1.0 6.0 0.00 0.00 0.00 65 1015.4
20260507222001 72 175 1.0 5.0 0.00 0.00 0.00 65 1015.2
20260507221502 72 178 2.0 6.0 0.00 0.00 0.00 64 1015.3
20260507221002 72 175 2.0 6.0 0.00 0.00 0.00 63 1015.4
20260507220502 72 174 1.0 5.0 0.00 0.00 0.00 63 1015.4
20260507220002 73 177 1.0 4.0 0.00 0.00 0.00 63 1015.4
20260507215502 73 175 1.0 5.0 0.00 0.00 0.00 62 1015.3
20260507215002 73 167 1.0 5.0 0.00 0.00 0.00 60 1015.3
20260507214502 73 167 1.0 4.0 0.00 0.00 0.00 61 1015.4
20260507214002 74 175 1.0 3.0 0.00 0.00 0.00 60 1015.6
20260507213502 74 183 0.0 3.0 0.00 0.00 0.00 58 1015.6
20260507213002 74 174 0.0 2.0 0.00 0.00 0.00 59 1015.7
20260507212002 74 170 0.0 3.0 0.00 0.00 0.00 59 1015.8
20260507211502 75 131 0.0 2.0 0.00 0.00 0.00 59 1015.9
20260507211003 75 131 0.0 1.0 0.00 0.00 0.00 60 1015.9
20260507210502 75 130 0.0 1.0 0.00 0.00 0.00 58 1015.8
20260507205502 74 138 0.0 1.0 0.00 0.00 0.00 60 1015.9
20260507205002 75 140 0.0 2.0 0.00 0.00 0.00 58 1015.9
20260507204502 75 138 0.0 2.0 0.00 0.00 0.00 57 1015.8
20260507204002 75 139 0.0 2.0 0.00 0.00 0.00 61 1015.8
20260507203502 75 139 0.0 1.0 0.00 0.00 0.00 59 1015.9
20260507202003 75 146 0.0 1.0 0.00 0.00 0.00 58 1016.3
20260507201502 75 181 0.0 1.0 0.00 0.00 0.00 58 1016.3
20260507201001 75 123 0.0 2.0 0.00 0.00 0.00 59 1016.6
20260507200002 75 89 0.0 3.0 0.00 0.00 0.00 60 1016.6
20260507195502 75 98 0.0 3.0 0.00 0.00 0.00 59 1016.6
20260507195002 75 186 0.0 2.0 0.00 0.00 0.00 55 1016.7
20260507194502 75 98 0.0 2.0 0.00 0.00 0.00 56 1016.8
20260507194002 75 90 0.0 3.0 0.00 0.00 0.00 58 1016.8
20260507193502 75 122 0.0 3.0 0.00 0.00 0.00 60 1016.9
20260507193002 74 104 1.0 3.0 0.00 0.00 0.00 60 1017.0
20260507192502 74 57 1.0 3.0 0.00 0.00 0.00 59 1017.1
20260507192002 73 45 1.0 3.0 0.00 0.00 0.00 60 1017.1
20260507191502 73 58 0.0 3.0 0.00 0.00 0.00 59 1017.1
20260507191002 72 78 0.0 3.0 0.00 0.00 0.00 58 1017.1
20260507190502 72 111 1.0 3.0 0.00 0.00 0.00 60 1017.2
20260507190003 72 106 1.0 3.0 0.00 0.00 0.00 59 1017.3
20260507185502 73 82 1.0 8.0 0.00 0.00 0.00 59 1017.3
20260507184502 73 88 0.0 4.0 0.00 0.00 0.00 57 1017.2
20260507184002 73 106 0.0 3.0 0.00 0.00 0.00 60 1017.3
20260507183503 72 99 0.0 3.0 0.00 0.00 0.00 61 1017.5
20260507183003 72 112 0.0 3.0 0.00 0.00 0.00 59 1017.5
20260507182502 72 96 1.0 3.0 0.00 0.00 0.00 63 1017.6
20260507182002 71 90 1.0 3.0 0.00 0.00 0.00 61 1017.7
20260507181502 71 100 0.0 3.0 0.00 0.00 0.00 60 1017.7
20260507180003 70 50 1.0 3.0 0.00 0.00 0.00 60 1017.9
20260507175502 70 67 1.0 3.0 0.00 0.00 0.00 60 1017.9
20260507175003 70 99 0.0 3.0 0.00 0.00 0.00 62 1017.9
20260507174502 70 126 0.0 3.0 0.00 0.00 0.00 63 1018.1
20260507174002 70 136 0.0 2.0 0.00 0.00 0.00 62 1018.3
20260507173502 70 130 0.0 2.0 0.00 0.00 0.00 62 1018.3
20260507173002 70 138 0.0 2.0 0.00 0.00 0.00 64 1018.4
20260507172502 70 169 0.0 2.0 0.00 0.00 0.00 64 1018.5
20260507172002 70 136 0.0 2.0 0.00 0.00 0.00 64 1018.7
20260507171502 69 110 0.0 2.0 0.00 0.00 0.00 64 1019.0
20260507171003 70 108 0.0 2.0 0.00 0.00 0.00 64 1019.3
20260507170003 70 115 0.0 2.0 0.00 0.00 0.00 65 1019.4
20260507165002 69 147 0.0 2.0 0.00 0.00 0.00 65 1019.5
20260507164002 68 129 0.0 4.0 0.00 0.00 0.00 67 1019.6
20260507163502 68 124 0.0 2.0 0.00 0.00 0.00 66 1019.7
20260507163003 68 124 0.0 2.0 0.00 0.00 0.00 66 1019.6
20260507162003 68 123 0.0 2.0 0.00 0.00 0.00 67 1019.8
20260507161502 68 135 0.0 2.0 0.00 0.00 0.00 68 1019.7
20260507161003 68 30 0.0 3.0 0.00 0.00 0.00 67 1019.6
20260507160502 67 105 0.0 3.0 0.00 0.00 0.00 68 1019.6
20260507160003 67 116 0.0 2.0 0.00 0.00 0.00 70 1019.6
20260507155502 67 113 0.0 2.0 0.00 0.00 0.00 69 1019.6
20260507155002 67 289 0.0 3.0 0.00 0.00 0.00 69 1019.6
20260507154503 67 124 0.0 3.0 0.00 0.00 0.00 68 1019.6
20260507154002 67 110 1.0 2.0 0.00 0.00 0.00 70 1019.7
20260507153003 67 119 0.0 4.0 0.00 0.00 0.00 70 1019.9
20260507152502 66 0 0.0 0.0 0.00 0.00 0.00 69 1019.9
20260507151502 66 162 0.0 1.0 0.00 0.00 0.00 71 1020.0
20260507151002 66 252 0.0 1.0 0.00 0.00 0.00 72 1020.0
20260507150503 66 93 0.0 3.0 0.00 0.00 0.00 73 1020.0
20260507150002 65 101 0.0 3.0 0.00 0.00 0.00 73 1020.0
20260507145502 65 110 0.0 3.0 0.00 0.00 0.00 74 1020.0
20260507144502 64 236 0.0 1.0 0.00 0.00 0.00 74 1020.0
20260507144003 64 236 0.0 1.0 0.00 0.00 0.00 75 1020.0
20260507143003 63 247 0.0 1.0 0.00 0.00 0.00 77 1020.1
20260507142502 62 253 0.0 2.0 0.00 0.00 0.00 79 1020.2
20260507142003 62 263 0.0 2.0 0.00 0.00 0.00 80 1020.1
20260507141502 61 267 0.0 1.0 0.00 0.00 0.00 79 1020.1
20260507141002 61 0 0.0 0.0 0.00 0.00 0.00 78 1020.2
20260507140003 61 273 0.0 1.0 0.00 0.00 0.00 80 1020.3
20260507135503 60 271 0.0 1.0 0.00 0.00 0.00 83 1020.4
20260507135002 59 270 0.0 3.0 0.00 0.00 0.00 84 1020.4
20260507134502 59 270 0.0 3.0 0.00 0.00 0.00 84 1020.6
20260507134003 58 267 0.0 2.0 0.00 0.00 0.00 86 1020.5
20260507133502 57 267 0.0 2.0 0.00 0.00 0.00 86 1020.5
20260507131503 56 275 0.0 1.0 0.00 0.00 0.00 89 1020.4
20260507131003 56 277 0.0 2.0 0.00 0.00 0.00 89 1020.5
20260507130502 55 276 0.0 2.0 0.00 0.00 0.00 90 1020.5
20260507130003 55 274 0.0 2.0 0.00 0.00 0.00 91 1020.5
20260507125503 55 274 0.0 2.0 0.00 0.00 0.00 92 1020.5
20260507125002 54 273 0.0 2.0 0.00 0.00 0.00 92 1020.4
20260507124503 54 262 0.0 2.0 0.00 0.00 0.00 93 1020.3
20260507124002 54 223 0.0 1.0 0.00 0.00 0.00 93 1020.1
20260507123502 53 0 0.0 0.0 0.00 0.00 0.00 93 1020.1
20260507123003 53 0 0.0 0.0 0.00 0.00 0.00 93 1020.1
20260507122503 53 0 0.0 0.0 0.00 0.00 0.00 93 1020.1
20260507115503 53 222 0.0 1.0 0.00 0.00 0.00 93 1019.7
20260507115003 53 222 0.0 1.0 0.00 0.00 0.00 93 1019.6
20260507114503 53 223 0.0 1.0 0.00 0.00 0.00 92 1019.8
20260507113503 53 0 0.0 0.0 0.00 0.00 0.00 92 1019.7
20260507113003 53 0 0.0 0.0 0.00 0.00 0.00 92 1019.5
20260507112502 53 0 0.0 0.0 0.00 0.00 0.00 92 1019.6
20260507112003 53 0 0.0 0.0 0.00 0.00 0.00 92 1019.6
20260507111503 54 0 0.0 0.0 0.00 0.00 0.00 92 1019.6
20260507111002 54 265 0.0 4.0 0.00 0.00 0.00 92 1019.7
20260507110503 54 252 0.0 4.0 0.00 0.00 0.00 92 1019.6
20260507110003 53 142 0.0 2.0 0.00 0.00 0.00 92 1019.4
20260507105502 53 123 0.0 1.0 0.00 0.00 0.00 92 1019.0
20260507105003 53 0 0.0 0.0 0.00 0.00 0.00 92 1018.7
20260507104503 53 0 0.0 0.0 0.00 0.00 0.00 91 1018.5
20260507104004 53 0 0.0 0.0 0.00 0.00 0.00 91 1018.5
20260507103503 53 0 0.0 0.0 0.00 0.00 0.00 91 1018.5
20260507102503 53 0 0.0 0.0 0.00 0.00 0.00 91 1018.1
20260507102002 53 0 0.0 0.0 0.00 0.00 0.00 90 1018.1
20260507101503 53 0 0.0 0.0 0.00 0.00 0.00 91 1018.1
20260507101003 53 0 0.0 0.0 0.00 0.00 0.00 90 1018.2
20260507100502 53 0 0.0 0.0 0.00 0.00 0.00 90 1018.3
20260507100003 53 0 0.0 0.0 0.00 0.00 0.00 90 1018.2
20260507095503 53 0 0.0 0.0 0.00 0.00 0.00 90 1018.0
20260507095002 53 0 0.0 0.0 0.00 0.00 0.00 90 1017.9
20260507094503 53 0 0.0 0.0 0.00 0.00 0.00 89 1018.1
20260507094004 54 125 0.0 2.0 0.00 0.00 0.00 89 1018.0
20260507093503 54 125 0.0 2.0 0.00 0.00 0.00 89 1018.0
20260507093003 54 0 0.0 0.0 0.00 0.00 0.00 89 1018.0
20260507092503 54 0 0.0 0.0 0.00 0.00 0.00 89 1017.9
20260507092003 54 128 0.0 1.0 0.00 0.00 0.00 89 1017.9
20260507091503 54 128 0.0 1.0 0.00 0.00 0.00 89 1017.8
20260507091003 54 128 0.0 1.0 0.00 0.00 0.00 89 1017.7
20260507090503 55 0 0.0 0.0 0.00 0.00 0.00 89 1017.7
20260507090005 55 0 0.0 0.0 0.00 0.00 0.00 89 1017.9
20260507085503 55 0 0.0 0.0 0.00 0.00 0.00 89 1017.9
20260507084503 55 128 0.0 1.0 0.00 0.00 0.00 88 1017.7
20260507084002 55 128 0.0 1.0 0.00 0.00 0.00 88 1017.7
20260507083503 55 128 0.0 1.0 0.00 0.00 0.00 88 1017.6
20260507083003 55 128 0.0 1.0 0.00 0.00 0.00 89 1017.7
20260507082503 55 121 0.0 2.0 0.00 0.00 0.00 88 1017.7
20260507082004 55 121 0.0 2.0 0.00 0.00 0.00 88 1017.6
20260507081503 56 51 0.0 1.0 0.00 0.00 0.00 88 1017.6
20260507081004 56 50 0.0 1.0 0.00 0.00 0.00 89 1017.5
20260507080503 56 51 0.0 1.0 0.00 0.00 0.00 88 1017.4
20260507080003 56 103 0.0 2.0 0.00 0.00 0.00 88 1017.3
20260507075503 56 140 0.0 3.0 0.00 0.00 0.00 88 1017.3
20260507075004 56 123 0.0 3.0 0.00 0.00 0.00 87 1017.2
20260507074503 56 103 0.0 3.0 0.00 0.00 0.00 88 1017.1
20260507074004 56 105 1.0 2.0 0.00 0.00 0.00 88 1017.0
20260507073503 56 108 0.0 2.0 0.00 0.00 0.00 88 1017.0
20260507073004 56 118 0.0 2.0 0.00 0.00 0.00 89 1017.0
20260507072503 56 119 0.0 1.0 0.00 0.00 0.00 89 1016.9
20260507072004 56 87 0.0 5.0 0.00 0.00 0.00 89 1017.1
20260507071504 56 90 1.0 5.0 0.00 0.00 0.00 89 1017.1
20260507071003 56 131 0.0 3.0 0.00 0.00 0.00 89 1017.1
20260507070504 56 122 1.0 5.0 0.00 0.00 0.00 89 1017.2
20260507065503 56 97 0.0 3.0 0.00 0.00 0.00 88 1017.0
20260507065003 56 87 0.0 3.0 0.00 0.00 0.00 88 1017.1
20260507063503 57 55 0.0 5.0 0.00 0.00 0.00 87 1017.0
20260507063003 57 88 0.0 5.0 0.00 0.00 0.00 87 1017.1
20260507062503 57 81 0.0 3.0 0.00 0.00 0.00 87 1017.1
20260507062004 57 84 1.0 4.0 0.00 0.00 0.00 87 1016.9
20260507061003 57 118 0.0 5.0 0.00 0.00 0.00 87 1016.9
20260507060504 57 111 0.0 3.0 0.00 0.00 0.00 86 1016.9
20260507060004 57 97 0.0 3.0 0.00 0.00 0.00 86 1016.8
20260507055503 58 126 0.0 1.0 0.00 0.00 0.00 85 1017.0
20260507055004 58 112 0.0 3.0 0.00 0.00 0.00 85 1017.0
20260507054504 58 111 1.0 3.0 0.00 0.00 0.00 85 1016.9
20260507054003 58 103 1.0 4.0 0.00 0.00 0.00 84 1016.8
20260507052503 58 89 0.0 4.0 0.00 0.00 0.00 83 1017.1
20260507052003 58 88 1.0 6.0 0.00 0.00 0.00 83 1017.1
20260507051504 58 98 1.0 6.0 0.00 0.00 0.00 83 1017.1
20260507051003 58 117 0.0 6.0 0.00 0.00 0.00 83 1017.0
20260507050503 59 99 1.0 6.0 0.00 0.00 0.00 83 1017.1
20260507050004 59 89 1.0 4.0 0.00 0.00 0.00 82 1017.1
20260507045504 59 85 1.0 5.0 0.00 0.00 0.00 82 1017.1
20260507045003 59 103 1.0 5.0 0.00 0.00 0.00 82 1017.2
20260507044501 59 104 1.0 5.0 0.00 0.00 0.00 82 1017.1
20260507044001 59 95 1.0 4.0 0.00 0.00 0.00 83 1017.2
20260507043501 59 90 1.0 4.0 0.00 0.00 0.00 82 1017.2
20260507043001 59 82 1.0 4.0 0.00 0.00 0.00 82 1017.3
20260507042502 59 76 1.0 4.0 0.00 0.00 0.00 83 1017.5
20260507042001 59 87 1.0 4.0 0.00 0.00 0.00 83 1017.4
20260507041501 59 71 1.0 4.0 0.00 0.00 0.00 83 1017.4
20260507041002 59 64 1.0 3.0 0.00 0.00 0.00 82 1017.4
20260507040501 60 90 0.0 3.0 0.00 0.00 0.00 83 1017.6
20260507040001 60 73 1.0 3.0 0.00 0.00 0.00 83 1017.6
20260507035501 59 78 1.0 4.0 0.00 0.00 0.00 83 1017.5
20260507035001 60 91 1.0 4.0 0.00 0.00 0.00 83 1017.5
20260507034501 60 84 1.0 4.0 0.00 0.00 0.00 83 1017.4
20260507034001 60 75 1.0 4.0 0.00 0.00 0.00 83 1017.4
20260507033001 60 40 1.0 3.0 0.00 0.00 0.00 83 1017.4
20260507032501 60 61 1.0 5.0 0.00 0.00 0.00 83 1017.2
20260507032001 60 104 1.0 6.0 0.00 0.00 0.00 84 1017.1
20260507031501 60 90 1.0 6.0 0.00 0.00 0.00 84 1017.1
20260507030501 59 103 0.0 2.0 0.00 0.00 0.00 84 1016.9
20260507030002 59 105 0.0 2.0 0.00 0.00 0.00 84 1016.7
20260507025002 59 89 0.0 2.0 0.00 0.00 0.00 84 1016.7
20260507024002 59 89 0.0 3.0 0.00 0.00 0.00 85 1016.6
20260507023501 59 40 0.0 3.0 0.00 0.00 0.00 85 1016.5
20260507022502 59 74 1.0 3.0 0.00 0.00 0.00 85 1016.3
20260507022001 59 69 0.0 4.0 0.00 0.00 0.00 86 1016.3
20260507020501 60 92 1.0 3.0 0.00 0.00 0.00 86 1015.9
20260507020002 60 96 1.0 3.0 0.00 0.00 0.00 86 1015.8
20260507015501 60 79 1.0 3.0 0.00 0.00 0.00 86 1015.7
20260507015001 60 80 1.0 3.0 0.00 0.00 0.00 86 1015.6
20260507014502 60 94 1.0 3.0 0.00 0.00 0.00 86 1015.5
20260507013502 60 119 0.0 1.0 0.00 0.00 0.00 86 1015.3